Date String (YYYY-MM-DD hh:mm:ss) UTC,Instrument flags,absolute air pressure of the measurement (hPa),sample flow rate (lpm),inlet stack bypass flow (lpm),air temperature of the measurement (°C),ambient temperature measured by the external sensor (°C),aerosol sample conditioner tube jacket temperature (°C),OPC LED temperature (°C),internal box temperature (°C),relative humidity of the measurement (%),span deviation,mass concentration of particles derived from Lorenz-Mie calculation of OPC scattering (μg/m³),mass concentration of particles derived from Lorenz-Mie calculation of OPC scattering (μg/m³),mass concentration of particles derived from Lorenz-Mie calculation of OPC scattering (μg/m³)
DateTimeUTC,F1_M11,P_M11,Q1_M11,Q2_M11,T1_M11,T2_M11,T3_M11,T4_M11,T5_M11,U1_M11,ZSPAN_M11,X0_M11,X2_M11,X1_M11
2024-04-11 03:00:00,SystemResetWarning,0833.9,5.00,000.00,026.4,025.6,000.0,035.0,028.3,019.2,0000.0,0005.88,0002.64,0001.48
2024-04-11 03:01:00,SystemResetWarning,0834.0,5.00,000.00,026.4,025.6,000.0,035.0,028.3,019.2,0000.0,0005.69,0002.62,0001.47
2024-04-11 03:02:00,SystemResetWarning,0834.0,5.01,000.00,026.4,025.6,000.0,035.0,028.3,019.2,0000.0,0005.55,0002.61,0001.46
2024-04-11 03:03:00,SystemResetWarning,0833.9,5.00,000.00,026.3,025.6,000.0,035.0,028.2,019.2,0000.0,0005.60,0002.60,0001.46
2024-04-11 03:04:00,SystemResetWarning,0834.0,5.00,000.00,026.3,025.5,000.0,035.0,028.2,019.3,0000.0,0005.51,0002.59,0001.47
2024-04-11 03:05:00,SystemResetWarning,0834.0,4.99,000.00,026.4,025.6,000.0,035.0,028.2,019.2,0000.0,0006.03,0002.61,0001.48
2024-04-11 03:06:00,SystemResetWarning,0833.9,4.99,000.00,026.4,025.6,000.0,035.0,028.2,019.2,0000.0,0006.47,0002.61,0001.48
2024-04-11 03:07:00,SystemResetWarning,0833.9,5.00,000.00,026.4,025.6,000.0,035.0,028.2,019.2,0000.0,0006.29,0002.64,0001.49
2024-04-11 03:08:00,SystemResetWarning,0833.9,5.01,000.00,026.4,025.6,000.0,035.0,028.3,019.2,0000.0,0006.26,0002.61,0001.49
2024-04-11 03:09:00,SystemResetWarning,0834.0,5.00,000.00,026.4,025.6,000.0,035.0,028.2,019.2,0000.0,0006.31,0002.58,0001.48
2024-04-11 03:10:00,SystemResetWarning,0834.0,5.00,000.00,026.3,025.5,000.0,035.0,028.2,019.2,0000.0,0005.99,0002.52,0001.48
2024-04-11 03:11:00,SystemResetWarning,0834.0,5.00,000.00,026.3,025.5,000.0,035.0,028.2,019.3,0000.0,0006.25,0002.51,0001.49
2024-04-11 03:12:00,SystemResetWarning,0834.0,5.00,000.00,026.3,025.5,000.0,035.0,028.2,019.3,0000.0,0006.29,0002.53,0001.49
2024-04-11 03:13:00,SystemResetWarning,0834.0,5.00,000.00,026.3,025.5,000.0,035.0,028.2,019.2,0000.0,0006.19,0002.49,0001.49
2024-04-11 03:14:00,SystemResetWarning,0834.0,5.00,000.00,026.3,025.5,000.0,035.0,028.2,019.2,0000.0,0006.44,0002.50,0001.50
2024-04-11 03:15:00,SystemResetWarning,0834.0,4.99,000.00,026.3,025.4,000.0,035.0,028.2,019.3,0000.0,0006.31,0002.48,0001.50
2024-04-11 03:16:00,SystemResetWarning,0834.0,4.99,000.00,026.3,025.5,000.0,035.0,028.2,019.3,0000.0,0005.73,0002.43,0001.50
2024-04-11 03:17:00,SystemResetWarning,0834.0,5.01,000.00,026.3,025.4,000.0,035.0,028.2,019.3,0000.0,0005.85,0002.47,0001.49
2024-04-11 03:18:00,SystemResetWarning,0834.0,5.01,000.00,026.3,025.4,000.0,034.9,028.2,019.3,0000.0,0007.51,0002.48,0001.49
2024-04-11 03:19:00,SystemResetWarning,0834.0,4.99,000.00,026.3,025.4,000.0,034.9,028.2,019.3,0000.0,0008.88,0002.52,0001.49
2024-04-11 03:20:00,SystemResetWarning,0834.1,4.99,000.00,026.3,025.4,000.0,034.9,028.2,019.2,0000.0,0008.89,0002.56,0001.49
2024-04-11 03:21:00,SystemResetWarning,0834.1,5.00,000.00,026.3,025.4,000.0,034.9,028.1,019.2,0000.0,0008.95,0002.61,0001.50
2024-04-11 03:22:00,SystemResetWarning,0834.1,5.01,000.00,026.3,025.4,000.0,034.9,028.1,019.2,0000.0,0009.33,0002.54,0001.49
2024-04-11 03:23:00,SystemResetWarning,0834.1,5.01,000.00,026.2,025.4,000.0,034.9,028.1,019.2,0000.0,0010.15,0002.54,0001.49
2024-04-11 03:24:00,SystemResetWarning,0834.1,5.01,000.00,026.2,025.4,000.0,034.9,028.1,019.2,0000.0,0010.15,0002.54,0001.49
2024-04-11 03:25:00,SystemResetWarning,0834.1,5.00,000.00,026.2,025.3,000.0,034.9,028.1,019.2,0000.0,0010.09,0002.56,0001.49
2024-04-11 03:26:00,SystemResetWarning,0834.2,5.00,000.00,026.2,025.3,000.0,034.9,028.1,019.2,0000.0,0010.22,0002.56,0001.48
2024-04-11 03:27:00,SystemResetWarning,0834.1,4.99,000.00,026.2,025.3,000.0,034.9,028.1,019.3,0000.0,0010.21,0002.52,0001.47
2024-04-11 03:28:00,SystemResetWarning,0834.2,5.00,000.00,026.2,025.3,000.0,034.9,028.1,019.3,0000.0,0010.14,0002.48,0001.46
2024-04-11 03:29:00,SystemResetWarning,0834.2,5.00,000.00,026.2,025.3,000.0,034.9,028.1,019.3,0000.0,0009.07,0002.42,0001.47
2024-04-11 03:30:00,SystemResetWarning,0834.2,5.01,000.00,026.2,025.3,000.0,034.9,028.1,019.3,0000.0,0007.74,0002.40,0001.47
2024-04-11 03:31:00,SystemResetWarning,0834.4,5.01,000.00,026.2,025.3,000.0,034.9,028.1,019.3,0000.0,0007.79,0002.41,0001.47
2024-04-11 03:32:00,SystemResetWarning,0834.2,5.00,000.00,026.2,025.3,000.0,034.9,028.1,019.3,0000.0,0008.03,0002.46,0001.48
2024-04-11 03:33:00,SystemResetWarning,0834.5,5.00,000.00,026.2,025.3,000.0,034.9,028.1,019.3,0000.0,0007.48,0002.56,0001.48
2024-04-11 03:34:00,SystemResetWarning,0834.5,5.01,000.00,026.2,025.3,000.0,034.9,028.1,019.3,0000.0,0006.80,0002.63,0001.48
2024-04-11 03:35:00,SystemResetWarning,0834.6,4.99,000.00,026.2,025.3,000.0,034.8,028.0,019.3,0000.0,0007.51,0002.64,0001.48
2024-04-11 03:36:00,SystemResetWarning,0834.6,4.99,000.00,026.2,025.3,000.0,034.8,028.0,019.3,0000.0,0007.76,0002.66,0001.49
2024-04-11 03:37:00,SystemResetWarning,0834.5,4.99,000.00,026.1,025.3,000.0,034.8,028.0,019.3,0000.0,0008.34,0002.75,0001.51
2024-04-11 03:38:00,SystemResetWarning,0834.3,5.01,000.00,026.1,025.2,000.0,034.8,028.0,019.3,0000.0,0008.85,0002.86,0001.53
2024-04-11 03:39:00,SystemResetWarning,0834.4,5.01,000.00,026.1,025.2,000.0,034.8,028.0,019.3,0000.0,0009.09,0002.97,0001.56
2024-04-11 03:40:00,SystemResetWarning,0834.3,5.00,000.00,026.1,025.2,000.0,034.8,028.0,019.4,0000.0,0009.17,0003.03,0001.59
2024-04-11 03:41:00,SystemResetWarning,0834.3,5.00,000.00,026.1,025.2,000.0,034.8,028.0,019.3,0000.0,0009.18,0003.04,0001.60
2024-04-11 03:42:00,SystemResetWarning,0834.3,4.99,000.00,026.1,025.1,000.0,034.8,028.0,019.3,0000.0,0009.23,0003.07,0001.62
2024-04-11 03:43:00,SystemResetWarning,0834.4,4.99,000.00,026.1,025.1,000.0,034.8,027.9,019.3,0000.0,0009.07,0003.06,0001.64
2024-04-11 03:44:00,SystemResetWarning,0834.4,4.99,000.00,026.1,025.1,000.0,034.8,027.9,019.4,0000.0,0009.05,0003.03,0001.66
2024-04-11 03:45:00,SystemResetWarning,0834.4,5.00,000.00,026.0,025.2,000.0,034.8,027.9,019.4,0000.0,0009.64,0002.98,0001.69
2024-04-11 03:46:00,SystemResetWarning,0834.4,5.01,000.00,026.0,025.2,000.0,034.7,027.9,019.3,0000.0,0009.47,0002.95,0001.70
2024-04-11 03:47:00,SystemResetWarning,0834.4,5.00,000.00,026.0,025.2,000.0,034.7,027.9,019.3,0000.0,0009.51,0002.92,0001.72
2024-04-11 03:48:00,SystemResetWarning,0834.4,5.01,000.00,026.0,025.2,000.0,034.7,028.0,019.4,0000.0,0009.03,0002.89,0001.73
2024-04-11 03:49:00,SystemResetWarning,0834.4,5.00,000.00,026.0,025.2,000.0,034.7,027.9,019.4,0000.0,0008.39,0002.81,0001.75
2024-04-11 03:50:00,SystemResetWarning,0834.4,4.99,000.00,026.0,025.2,000.0,034.7,027.9,019.4,0000.0,0008.03,0002.74,0001.76
2024-04-11 03:51:00,SystemResetWarning,0834.4,5.00,000.00,026.0,025.2,000.0,034.7,027.9,019.3,0000.0,0007.85,0002.75,0001.77
2024-04-11 03:52:00,SystemResetWarning,0834.4,5.00,000.00,026.0,025.2,000.0,034.7,027.9,019.3,0000.0,0007.93,0002.79,0001.79
2024-04-11 03:53:00,SystemResetWarning,0834.4,5.00,000.00,026.0,025.2,000.0,034.7,027.9,019.2,0000.0,0008.00,0002.81,0001.81
2024-04-11 03:54:00,SystemResetWarning,0834.4,5.00,000.00,026.0,025.1,000.0,034.7,027.9,019.2,0000.0,0007.90,0002.77,0001.82
2024-04-11 03:55:00,SystemResetWarning,0834.4,5.00,000.00,026.0,025.1,000.0,034.7,027.9,019.2,0000.0,0008.22,0002.79,0001.83
2024-04-11 03:56:00,SystemResetWarning,0834.4,4.99,000.00,026.0,025.1,000.0,034.7,027.9,019.3,0000.0,0008.05,0002.77,0001.82
2024-04-11 03:57:00,SystemResetWarning,0834.4,5.00,000.00,026.0,025.2,000.0,034.7,027.9,019.3,0000.0,0007.71,0002.81,0001.83
2024-04-11 03:58:00,SystemResetWarning,0834.4,5.02,000.00,026.0,025.2,000.0,034.7,027.9,019.3,0000.0,0007.82,0002.87,0001.84
2024-04-11 03:59:00,SystemResetWarning,0834.4,5.01,000.00,026.0,025.2,000.0,034.7,027.9,019.3,0000.0,0007.76,0002.81,0001.83
